Weather in Dmytrivka

Ukraine / Zaporizhia Region     46°45′50″N   35°49′43″E
temp.,
°C
wind,
m/s
gust,
m/s
humid.,
%
clouds,
%
prec.,
mm/h
press.,
hPa
HPBL,
m
2 march, tue
tue223:000n33840 0.0 102954
02:000nnw35840 0.0 103099
05:00−1nw23850 0.0 102962
08:00+1wnw34770 0.0 1030227
11:00+5w57570 0.0 10281062
14:00+6w795315 0.0 10261088
17:00+5wsw51063100 0.0 1023798
20:00+2wsw7147383 0.0 1022561
3 march, wed
wed323:00+3w8147976 0.0 1020588
02:00+2nw5117985 0.1 1020566
05:00+3nw71182100 0.1 1020910
08:00+3nnw71069100 0.1 1023992
11:00+5nnw796044 0.0 10241033
14:00+7nnw794922 0.0 10251358
17:00+5nw48510 0.0 1025493
20:00+3wnw34630 0.0 102772
4 march, thu
thu423:00+2wnw23680 0.0 102724
02:00+1wsw23720 0.0 102632
05:000wsw34780 0.0 102575
08:00+3wsw48650 0.0 1024332
11:00+8sw79550 0.0 10221139
14:00+8sw810530 0.0 10201161
17:00+7ssw610622 0.0 1017418
20:00+5sw6127611 0.0 1017437
5 march, fri
fri523:00+4sw6148167 0.0 1016476
02:00+3sw6138534 0.0 1016486
05:00+3sw512890 0.0 1015404
08:00+5sw611845 0.0 1015522
11:00+8ssw797171 0.0 1015586
14:00+9ssw695980 0.0 1013677
17:00+8ssw6106892 0.0 1012353
20:00+6ssw5108181 0.0 1012239
6 march, sat
sat623:00+5sw511881 0.0 1012322
02:00+5wsw489425 0.0 1012329
05:00+5w3397100 0.0 101291
08:00+6n4688100 0.0 1014364
11:00+3n7991100 0.1 1014417
14:00+2n71092100 1.4 1015660
17:00+3nnw6951100 0.0 10171194
20:00+2nnw71157100 0.0 1020860